Content
SEND FEEDBACK

Daily
Averages
Monthly
Summary
United States of America

BLUE MOUNDS, WISCONSIN


Home > North America > United States > Wisconsin
Elevation: 970 feet     Latitude: 42 58N     Longitude: 089 49W

WEATHER
 
SELECT A DAY
Number of Records: 110,366;   Date Range: 11/4/09 - 8/20/14
 
SHARE

PRINT THIS DATA

[ ← Previous Day ]
WEATHER ALMANAC - JANUARY 31, 2013
[ Next Day → ]
[ °C ]   °F
Weather ElementAverageHighLow
Temperature10.7 °F16.3 °F (12:35 am)0.1 °F (11:35 pm)
Dewpoint2.6 °F9.5 °F (4:15 am)-6.2 °F (11:15 pm)
Humidity70.1 %81 % (5:15 am)58 % (11:15 am)
Barometer29.86 in30.14 in (11:55 pm)29.63 in (12:35 am)
Wind Speed13.3 mph19.6 mph (2:35 pm)
Wind Gust25.3 mph (12:35 am)
Weather ElementAverage
Visibility7.1 mi
Wind DirectionWNW (288.7 °)

Weather ElementTotal
Precipitation---
Heating Degree Days56.8 (Base 65)
Averaged from 67 records on January 31, 2013
WEATHER CONDITIONS BREAKOUT
WIND DIRECTION BREAKOUT
WEATHER BY HOUR - JANUARY 31, 2013
[ °C ]   °F
Local TimeTemperatureDewpointHumidityBarometerVisibilityWind DirectionWind SpeedGust SpeedPrecipitationEventsConditions
12:35 AM16.3 °F8.8 °F72 %29.63 in10.0 miWNW (290°)17.3 mph25.3 mphOvercast
12:55 AM16.0 °F7.3 °F69 %29.64 in10.0 miWNW (290°)15.0 mph20.7 mphOvercast
1:15 AM15.8 °F7.2 °F69 %29.64 in10.0 miWNW (290°)12.7 mph18.4 mphOvercast
1:35 AM15.4 °F7.5 °F71 %29.65 in10.0 miWest (280°)16.1 mphOvercast
1:55 AM15.3 °F7.0 °F70 %29.66 in10.0 miWNW (290°)15.0 mph24.2 mphOvercast
2:15 AM15.3 °F6.8 °F69 %29.67 in10.0 miWest (280°)13.8 mphOvercast
2:55 AM15.3 °F6.8 °F69 %29.67 in10.0 miWNW (300°)15.0 mph21.9 mphOvercast
3:15 AM15.3 °F6.6 °F69 %29.67 in10.0 miWNW (290°)12.7 mphOvercast
3:35 AM14.9 °F7.7 °F73 %29.67 in10.0 miWest (280°)11.5 mph18.4 mphOvercast
3:55 AM14.9 °F8.6 °F76 %29.67 in7.0 miWest (280°)10.4 mphOvercast
4:15 AM14.9 °F9.5 °F79 %29.68 in2.5 miWNW (290°)11.5 mphOvercast
4:35 AM14.9 °F9.5 °F79 %29.68 in2.5 miWest (280°)11.5 mph17.3 mphOvercast
4:55 AM14.4 °F8.8 °F79 %29.69 in3.0 miWest (280°)12.7 mph18.4 mphOvercast
5:15 AM14.2 °F9.3 °F81 %29.69 in1.0 miWNW (300°)8.1 mphOvercast
5:35 AM13.5 °F7.7 °F78 %29.70 in2.5 miWNW (300°)11.5 mphOvercast
5:55 AM13.5 °F6.1 °F72 %29.70 in10.0 miWNW (300°)12.7 mphOvercast
6:15 AM13.1 °F5.2 °F71 %29.71 in7.0 miNW (310°)9.2 mphOvercast
6:35 AM12.9 °F5.0 °F71 %29.73 in10.0 miWNW (300°)11.5 mphOvercast
6:55 AM12.6 °F4.8 °F71 %29.73 in10.0 miNW (310°)9.2 mphOvercast
7:15 AM12.6 °F5.0 °F72 %29.75 in10.0 miWNW (290°)9.2 mphOvercast
7:55 AM12.7 °F4.6 °F70 %29.76 in7.0 miWNW (290°)16.1 mphOvercast
8:15 AM12.6 °F3.9 °F68 %29.77 in10.0 miWNW (290°)10.4 mphOvercast
8:35 AM13.1 °F3.0 °F64 %29.77 in10.0 miWNW (290°)15.0 mph19.6 mphOvercast
8:55 AM12.7 °F2.8 °F65 %29.78 in10.0 miWNW (290°)15.0 mphMostly Cloudy
9:15 AM13.1 °F2.1 °F62 %29.79 in10.0 miWNW (300°)11.5 mph18.4 mphScattered Clouds
9:35 AM13.1 °F1.9 °F61 %29.80 in7.0 miWNW (290°)13.8 mphMostly Cloudy
9:55 AM12.7 °F1.9 °F62 %29.81 in7.0 miWNW (300°)16.1 mphMostly Cloudy
10:15 AM12.6 °F1.6 °F62 %29.81 in10.0 miNW (310°)15.0 mphOvercast
10:35 AM12.6 °F1.9 °F63 %29.83 in7.0 miWNW (290°)16.1 mphOvercast
10:55 AM12.6 °F2.3 °F64 %29.83 in5.0 miWNW (290°)16.1 mph23.0 mphOvercast
11:15 AM13.1 °F0.7 °F58 %29.83 in10.0 miWNW (290°)18.4 mph23.0 mphOvercast
11:35 AM12.9 °F0.7 °F58 %29.83 in10.0 miWNW (290°)16.1 mph21.9 mphOvercast
11:55 AM12.2 °F0.9 °F60 %29.84 in10.0 miNW (310°)13.8 mph21.9 mphOvercast
12:15 PM12.4 °F1.4 °F62 %29.85 in7.0 miWNW (300°)13.8 mph19.6 mphOvercast
12:35 PM12.9 °F1.8 °F61 %29.85 in5.0 miWNW (300°)13.8 mph24.2 mphOvercast
12:55 PM12.7 °F5.4 °F72 %29.85 in2.5 miWest (280°)12.7 mphOvercast
1:15 PM12.7 °F5.0 °F71 %29.85 in1.5 miWest (270°)13.8 mphOvercast
1:35 PM12.9 °F3.9 °F67 %29.86 in3.0 miWest (280°)11.5 mphOvercast
1:55 PM12.6 °F4.3 °F69 %29.86 in3.0 miWest (260°)17.3 mph21.9 mphOvercast
2:15 PM12.4 °F4.1 °F69 %29.87 in3.0 miWest (270°)12.7 mph18.4 mphOvercast
2:35 PM12.2 °F3.9 °F69 %29.88 in4.0 miWest (280°)19.6 mph23.0 mphOvercast
2:55 PM11.8 °F3.9 °F71 %29.89 in2.0 miWest (280°)16.1 mphOvercast
3:15 PM11.8 °F5.0 °F74 %29.90 in2.0 miWest (280°)12.7 mph19.6 mphOvercast
3:35 PM11.7 °F3.6 °F70 %29.90 in2.5 miWNW (290°)13.8 mphOvercast
3:55 PM11.1 °F3.9 °F73 %29.92 in2.5 miWest (280°)11.5 mphOvercast
4:15 PM10.8 °F4.5 °F76 %29.92 in1.8 miWNW (290°)19.6 mphOvercast
4:35 PM9.9 °F3.2 °F74 %29.94 in2.0 miWest (280°)16.1 mphOvercast
4:55 PM9.1 °F2.5 °F74 %29.95 in3.0 miWNW (290°)12.7 mph17.3 mphOvercast
5:15 PM9.0 °F1.2 °F71 %29.96 in5.0 miWNW (290°)15.0 mph21.9 mphOvercast
5:35 PM8.6 °F1.9 °F74 %29.97 in4.0 miWNW (290°)11.5 mph18.4 mphOvercast
5:55 PM7.9 °F1.0 °F74 %29.98 in5.0 miWNW (290°)13.8 mphOvercast
6:15 PM7.5 °F1.4 °F76 %29.99 in3.0 miWest (280°)15.0 mphOvercast
6:35 PM7.2 °F0.5 °F74 %30.00 in5.0 miWNW (290°)15.0 mph18.4 mphOvercast
6:55 PM6.6 °F-1.3 °F70 %30.02 in10.0 miWest (280°)16.1 mph20.7 mphOvercast
7:15 PM6.1 °F-2.0 °F69 %30.03 in10.0 miWNW (290°)17.3 mph21.9 mphOvercast
7:35 PM5.5 °F-2.7 °F69 %30.04 in10.0 miWNW (300°)15.0 mph18.4 mphMostly Cloudy
8:15 PM4.6 °F-3.3 °F70 %30.06 in10.0 miWNW (290°)12.7 mph17.3 mphScattered Clouds
8:35 PM4.1 °F-3.6 °F70 %30.07 in10.0 miWNW (290°)11.5 mphClear
8:55 PM3.9 °F-3.5 °F71 %30.08 in10.0 miWNW (290°)12.7 mph17.3 mphClear
9:15 PM3.9 °F-4.0 °F70 %30.08 in10.0 miWNW (300°)12.7 mph20.7 mphClear
9:35 PM3.2 °F-4.0 °F72 %30.09 in10.0 miWNW (300°)11.5 mphClear
10:15 PM2.3 °F-5.1 °F71 %30.10 in10.0 miWest (280°)6.9 mphClear
10:35 PM1.6 °F-5.6 °F72 %30.10 in10.0 miWest (280°)8.1 mphClear
10:55 PM1.4 °F-5.8 °F72 %30.12 in10.0 miWest (280°)10.4 mphClear
11:15 PM0.7 °F-6.2 °F73 %30.12 in10.0 miWest (280°)10.4 mphClear
11:35 PM0.1 °F-6.0 °F75 %30.13 in10.0 miWest (280°)9.2 mphClear
11:55 PM0.3 °F-5.4 °F77 %30.14 in10.0 miWest (270°)11.5 mphClear
Hourly data recorded from KC29, located miles away from Blue Mounds, Wisconsin







STORIES FROM OUR PARTNERS